Regional Weather Roundup
Issued by NWS Memphis, TN

Home | Current Version | Previous Version | Text Only | Print | Product List | Glossary On
Versions: 1 2 3 4 5 6 7 8 9 10 11 12 13 14 15 16 17 18 19 20 21 22 23 24 25 26 27 28 29 30 31 32 33 34 35 36 37 38 39 40 41 42 43 44 45 46 47 48 49 50
000
ASUS44 KMEG 212010
RWRMEG
MEMPHIS CWA HOURLY WEATHER ROUNDUP
NATIONAL WEATHER SERVICE MEMPHIS TN
300 PM CDT TUE OCT 21 2014

...WEST TENNESSEE...

CITY           SKY/WX    TMP DP  RH WIND       PRES   REMARKS
MEMPHIS INTL   SUNNY     76  45  33 N9        30.05F
NWS MEMPHIS      N/A     76 N/A N/A MISG        N/A
JACKSON        SUNNY     75  46  35 VRB6      30.05F
LEXINGTON      SUNNY     72  45  37 NW9       30.04S
SAVANNAH       SUNNY     73  46  38 N12       30.04F
DYERSBURG      SUNNY     73  43  33 NW9       30.07S
PARIS          SUNNY     72  43  35 N13       30.05S
HUNTINGDON     SUNNY     72  42  33 NW8       30.05S


...EASTERN ARKANSAS...

CITY           SKY/WX    TMP DP  RH WIND       PRES   REMARKS
JONESBORO      SUNNY     75  45  34 N5        30.06F
WEST MEMPHIS   SUNNY     76  47  35 N10       30.05F
BATESVILLE     SUNNY     79  48  34 NW6       30.07S
NEWPORT        SUNNY     76  45  33 NE5       30.08S
WALNUT RIDGE   SUNNY     73  45  35 NE3       30.07S
BLYTHEVILLE    SUNNY     78  46  32 NW5       30.06F
NW BLYTHEVILLE SUNNY     75  48  38 N6        30.06F
SEARCY         SUNNY     78  51  38 N5        30.06F
STUTTGART      SUNNY     77  52  41 N8        30.06F
PINE BLUFF     MOSUNNY   77  52  41 CALM      30.04F
MONTICELLO     MOSUNNY   78  58  49 CALM      30.03F


...NORTH MISSISSIPPI...

CITY           SKY/WX    TMP DP  RH WIND       PRES   REMARKS
TUPELO         SUNNY     76  47  35 N9        30.02F
OXFORD         SUNNY     75  46  35 N7        30.06S
OLIVE BRANCH   SUNNY     73  48  40 N8        30.05F
TUNICA         SUNNY     77  45  31 N9        30.05F
CLARKSDALE     SUNNY     77  54  44 N7        30.05S
CORINTH        SUNNY     73  45  35 VRB7      30.03F
GRENADA          N/A    N/A N/A N/A MISG        N/A
GREENWOOD      MOSUNNY   80  56  43 NW8       30.02F
COLUMBUS       SUNNY     78  54  43 N12       30.01F
STARKVILLE     FAIR      77  54  44 N6        30.01F
GOLDEN TRIANGL PTSUNNY   77  55  47 N9        30.01F


...SOUTHEAST MISSOURI...

CITY           SKY/WX    TMP DP  RH WIND       PRES   REMARKS
WEST PLAINS    SUNNY     73  43  33 MISG      30.10F
POPLAR BLUFF   SUNNY     76  43  30 VRB3      30.05F
CAPE GIRARDEAU SUNNY     71  46  40 N14       30.07F


...NORTHWEST ALABAMA...

CITY           SKY/WX    TMP DP  RH WIND       PRES   REMARKS
MUSCLE SHOALS  SUNNY     76  43  30 N9        30.03


...MIDDLE TENNESSEE...

CITY           SKY/WX    TMP DP  RH WIND       PRES   REMARKS
NASHVILLE      MOSUNNY   73  46  38 NW9       30.03S
CLARKSVILLE    SUNNY     70  45  40 NW13      30.04S
COLUMBIA       SUNNY     72  46  40 NW8       30.01F


...WESTERN KENTUCKY...

CITY           SKY/WX    TMP DP  RH WIND       PRES   REMARKS
PADUCAH        SUNNY     71  47  42 N7        30.06S
FORT CAMPBELL  SUNNY     69  45  41 NW13G20   30.04S


...CENTRAL ARKANSAS...

CITY           SKY/WX    TMP DP  RH WIND       PRES   REMARKS
LITTLE ROCK    MOSUNNY   80  51  36 NE3       30.05F


SKY/WX REPORTED AS FAIR MEANS FEW OR NO CLOUDS BELOW
12 THOUSAND FEET.




USA.gov is the U.S. government's official web portal to all federal, state and local government web resources and services.